Regional Weather Roundup
Issued by NWS

Home | Current Version | Previous Version | Text Only | Print | Product List | Glossary Off
Versions: 1 2 3 4 5 6 7 8 9 10 11 12 13 14 15 16 17 18 19 20 21 22 23 24 25 26 27 28 29 30 31 32 33 34 35 36 37 38 39 40 41 42 43 44 45 46 47 48 49 50

000
ASUS43 KIND 061159
RWRIN

WEATHER ROUNDUP FOR INDIANA
NATIONAL WEATHER SERVICE INDIANAPOLIS IN
700 AM EST TUE DEC 06 2016

NOTE: "FAIR" INDICATES FEW OR NO CLOUDS BELOW 12,000 FEET WITH NO
SIGNIFICANT WEATHER AND/OR OBSTRUCTIONS TO VISIBILITY.

* - STATION DOES NOT REPORT WEATHER SUCH AS PRECIPITATION OR FOG.

+ - STATION NOT QUALITY CONTROLLED BY THE NATIONAL WEATHER SERVICE.
    USE DATA WITH CAUTION...ESPECIALLY DEWPOINT AND RELATIVE
    HUMIDITY OBSERVATIONS.

INZ001>003-010>013-019-020-061300-
NORTHWEST INDIANA

CITY           SKY/WX    TMP DP  RH WIND       PRES   REMARKS

$$

LMZ046-743>745-061300-
SOUTHERN LAKE MICHIGAN

STATION/POSITION TIME  TEMP    WIND        PRES    WAVE
                       AIR SEA DIR/SP/G            HT
                 (UTC) (F)     (DEG/KT/KT) (MB)    (FT)
BURNS HARBOR     1140   33      80/  6/  9 1009.8F

$$

INZ004-005-014>016-021>024-061300-
NORTH CENTRAL INDIANA

CITY           SKY/WX    TMP DP  RH WIND       PRES   REMARKS
GOSHEN         CLOUDY    33  28  81 E7        29.79F WCI  27
6HR MIN TEMP:  27; 6HR MAX TEMP:  33;

SOUTH BEND     CLOUDY    31  28  89 E7        29.80F WCI  24
6HR MIN TEMP:  28; 6HR MAX TEMP:  31;


$$

INZ006>009-017-018-025>027-061300-
NORTHEAST INDIANA

CITY           SKY/WX    TMP DP  RH WIND       PRES   REMARKS
ANGOLA *+      CLEAR     32  21  64 E10       29.81S WCI  24
FORT WAYNE     CLOUDY    32  28  85 E12       29.77F WCI  23
6HR MIN TEMP:  26; 6HR MAX TEMP:  32;

KENDALLVILLE + CLOUDY    32  29  90 E8        29.79S WCI  25

$$

INZ028-029-035-036-043>045-051>053-061300-
WEST CENTRAL INDIANA

CITY           SKY/WX    TMP DP  RH WIND       PRES   REMARKS
CRAWFORDSVL +  CLOUDY    35  35  99 N3        29.74S
6HR MIN TEMP:  33; 6HR MAX TEMP:  36;

GREENCASTLE +  CLOUDY    36  36 100 CALM      29.72S
LAFAYETTE      MOCLDY    34  32  92 N3        29.77R
6HR MIN TEMP:  32; 6HR MAX TEMP:  35;

TERRE HAUTE    CLOUDY    39  34  82 N5        29.73S
6HR MIN TEMP:  36; 6HR MAX TEMP:  39;


$$

INZ030>032-037>040-046>048-054>057-064-065-061300-
CENTRAL INDIANA

CITY           SKY/WX    TMP DP  RH WIND       PRES   REMARKS
COLUMBUS       CLOUDY    37  37 100 NE5       29.72
INDIANAPOLIS   CLOUDY    39  33  79 NE8       29.72F
6HR MIN TEMP:  36; 6HR MAX TEMP:  39; 6HR PCP: TRACE;

-EAGLE CREEK   CLOUDY    38  32  79 E7        29.71F
6HR MIN TEMP:  35; 6HR MAX TEMP:  39;

KOKOMO +       CLOUDY    33  31  92 NE8       29.76R WCI  26
6HR MIN TEMP:  31; 6HR MAX TEMP:  33;

SHELBYVILLE    LGT RAIN  38  34  85 E9        29.71F
6HR MIN TEMP:  37; 6HR MAX TEMP:  39; 6HR PCP:  0.02;


$$

INZ033-034-041-042-049-050-058-059-061300-
EAST CENTRAL INDIANA

CITY           SKY/WX    TMP DP  RH WIND       PRES   REMARKS
MUNCIE         CLOUDY    35  31  85 E7        29.74S WCI  29
6HR MIN TEMP:  32; 6HR MAX TEMP:  35;


$$

INZ060-061-067>069-081>083-085>088-061300-
SOUTHWEST INDIANA

CITY           SKY/WX    TMP DP  RH WIND       PRES   REMARKS
EVANSVILLE     HVY RAIN  43  40  89 N3        29.69R FOG
6HR MIN TEMP:  42; 6HR MAX TEMP:  44; 6HR PCP:  0.44;

HUNTINGBURG *+ LGT RAIN  41  41 100 N7        29.67F FOG
6HR MIN TEMP:  41; 6HR MAX TEMP:  44; 6HR PCP:  0.46;


$$

INZ062-063-066-070>080-084-089>092-061300-
SOUTH CENTRAL AND SOUTHEAST INDIANA

CITY           SKY/WX    TMP DP  RH WIND       PRES   REMARKS
BLOOMINGTON    LGT RAIN  39  35  86 E7        29.70S
6HR MIN TEMP:  39; 6HR MAX TEMP:  40; 6HR PCP:  0.05;

MADISON *+     CLOUDY    39  37  93 E7        29.70S
SEYMOUR +      RAIN      41  39  93 NE5       29.69F

$$




USA.gov is the U.S. government's official web portal to all federal, state and local government web resources and services.